MONITOR-2 (RS39S)

Last updated on Wed Sep 17 2025 00:03:09 GMT+0000 (Coordinated Universal Time)

1 57184U 23091U 25259.56184305 .00005428 00000+0 29142-3 0 9994 2 57184 97.5514 314.5934 0011550 350.3698 9.7311 15.15294684122464
UTC large
Height (km)
Speed (km/s)
/
Latitude / Longitude
Inclination (degrees)
Orbital Period (minutes)
Azimuth
Elevation
Range (km)
Doppler Factor

Next 0 passes for location: London (51.5072 / 0.1276)

Sorry there are no passes over London.